| time (UTC) | temp C | wind direction | speed KPH | gust KPH | rain 1hr cm | rain 24hr cm | rain mn cm | humidity % | barometer mb |
| 20260903050105 | 16 | 341 | 3.2 | 8.0 | 0.03 | 0.61 | 0.18 | 90 | 1016.4 |
| 20260903044600 | 16 | 281 | 1.6 | 8.0 | 0.03 | 0.61 | 0.18 | 91 | 1016.8 |
| 20260903043110 | 15 | 324 | 1.6 | 11.3 | 0.05 | 0.61 | 0.18 | 89 | 1017.3 |
| 20260903041601 | 16 | 335 | 1.6 | 12.9 | 0.00 | 0.56 | 0.13 | 89 | 1017.6 |
| 20260903040105 | 16 | 286 | 0.0 | 11.3 | 0.00 | 0.56 | 0.13 | 90 | 1017.6 |
| 20260903034605 | 15 | 360 | 1.6 | 12.9 | 0.00 | 0.56 | 0.13 | 90 | 1018.0 |
| 20260903033103 | 16 | 19 | 1.6 | 9.7 | 0.00 | 0.56 | 0.10 | 89 | 1017.9 |
| 20260903031557 | 16 | 5 | 4.8 | 16.1 | 0.00 | 0.56 | 0.10 | 84 | 1018.0 |
| 20260903030110 | 16 | 343 | 0.0 | 4.8 | 0.00 | 0.56 | 0.10 | 84 | 1018.0 |
| 20260903024600 | 17 | 0 | 0.0 | 6.4 | 0.00 | 0.56 | 0.10 | 83 | 1018.1 |
| 20260903023108 | 17 | 0 | 1.6 | 8.0 | 0.00 | 0.56 | 0.10 | 85 | 1018.4 |
| 20260903021602 | 16 | 19 | 0.0 | 4.8 | 0.00 | 0.56 | 0.10 | 88 | 1018.6 |
| 20260903014603 | 16 | 14 | 1.6 | 9.7 | 0.00 | 0.56 | 0.10 | 89 | 1019.0 |
| 20260903013103 | 16 | 0 | 0.0 | 6.4 | 0.00 | 0.56 | 0.10 | 91 | 1019.0 |
| 20260903011610 | 15 | 0 | 0.0 | 6.4 | 0.00 | 0.56 | 0.10 | 93 | 1019.1 |
| 20260903010108 | 15 | 19 | 0.0 | 3.2 | 0.00 | 0.56 | 0.10 | 94 | 1019.1 |
| 20260903004625 | 14 | 14 | 0.0 | 8.0 | 0.00 | 0.56 | 0.10 | 94 | 1018.8 |
| 20260903003107 | 13 | 0 | 0.0 | 4.8 | 0.00 | 0.56 | 0.10 | 95 | 1018.8 |
| 20260903001604 | 14 | 0 | 0.0 | 1.6 | 0.00 | 0.56 | 0.10 | 95 | 1019.0 |
| 20260902234601 | 13 | 0 | 0.0 | 1.6 | 0.00 | 0.56 | 0.10 | 95 | 1018.9 |
| 20260902233105 | 12 | 0 | 0.0 | 1.6 | 0.00 | 0.56 | 0.10 | 95 | 1018.9 |
| 20260902231607 | 12 | 0 | 0.0 | 1.6 | 0.00 | 0.56 | 0.10 | 95 | 1018.9 |
| 20260902230106 | 12 | 0 | 0.0 | 1.6 | 0.00 | 0.56 | 0.10 | 95 | 1018.7 |
| 20260902224603 | 12 | 0 | 0.0 | 1.6 | 0.00 | 0.56 | 0.10 | 95 | 1018.5 |
| 20260902223121 | 11 | 0 | 0.0 | 0.0 | 0.00 | 0.56 | 0.10 | 95 | 1018.9 |
| 20260902221608 | 11 | 0 | 0.0 | 0.0 | 0.00 | 0.56 | 0.10 | 95 | 1018.9 |
| 20260902220112 | 11 | 0 | 0.0 | 0.0 | 0.00 | 0.53 | 0.08 | 95 | 1018.8 |
| 20260902214604 | 12 | 0 | 0.0 | 0.0 | 0.00 | 0.53 | 0.08 | 94 | 1018.9 |
| 20260902213102 | 12 | 0 | 0.0 | 1.6 | 0.00 | 0.53 | 0.08 | 95 | 1018.8 |
| 20260902211603 | 12 | 0 | 0.0 | 0.0 | 0.00 | 0.53 | 0.08 | 95 | 1018.9 |
| 20260902210100 | 12 | 0 | 0.0 | 0.0 | 0.00 | 0.53 | 0.08 | 95 | 1018.8 |
| 20260902204642 | 12 | 0 | 0.0 | 1.6 | 0.00 | 0.53 | 0.08 | 95 | 1018.7 |
| 20260902203102 | 12 | 0 | 0.0 | 1.6 | 0.00 | 0.53 | 0.08 | 95 | 1018.8 |
| 20260902201603 | 12 | 0 | 0.0 | 0.0 | 0.00 | 0.53 | 0.08 | 95 | 1018.8 |
| 20260902200103 | 12 | 0 | 0.0 | 1.6 | 0.00 | 0.53 | 0.08 | 95 | 1018.9 |
| 20260902194603 | 12 | 0 | 0.0 | 1.6 | 0.00 | 0.53 | 0.08 | 95 | 1018.9 |
| 20260902193105 | 13 | 0 | 0.0 | 3.2 | 0.00 | 0.53 | 0.08 | 94 | 1019.1 |
| 20260902191604 | 13 | 0 | 0.0 | 0.0 | 0.08 | 0.53 | 0.08 | 95 | 1019.1 |
| 20260902190105 | 13 | 0 | 0.0 | 3.2 | 0.08 | 0.53 | 0.08 | 95 | 1019.5 |
| 20260902184656 | 13 | 0 | 0.0 | 0.0 | 0.08 | 0.53 | 0.08 | 94 | 1019.7 |
| 20260902183113 | 13 | 0 | 0.0 | 1.6 | 0.08 | 0.53 | 0.08 | 94 | 1019.8 |
| 20260902181614 | 13 | 0 | 0.0 | 0.0 | 0.00 | 0.46 | 0.00 | 94 | 1020.0 |
| 20260902180109 | 13 | 0 | 0.0 | 0.0 | 0.00 | 0.43 | 0.00 | 94 | 1020.0 |
| 20260902174603 | 13 | 0 | 0.0 | 0.0 | 0.00 | 0.43 | 0.00 | 94 | 1020.0 |
| 20260902173119 | 13 | 0 | 0.0 | 0.0 | 0.00 | 0.43 | 0.00 | 94 | 1020.0 |
| 20260902171607 | 12 | 0 | 0.0 | 0.0 | 0.00 | 0.43 | 0.00 | 94 | 1020.2 |
| 20260902170104 | 12 | 0 | 0.0 | 0.0 | 0.00 | 0.43 | 0.00 | 94 | 1020.2 |
| 20260902164606 | 12 | 0 | 0.0 | 0.0 | 0.00 | 0.43 | 0.00 | 94 | 1020.2 |
| 20260902163105 | 12 | 0 | 0.0 | 0.0 | 0.00 | 0.43 | 0.00 | 94 | 1020.4 |
| 20260902161602 | 12 | 0 | 0.0 | 1.6 | 0.00 | 0.43 | 0.00 | 94 | 1020.5 |
| 20260902160104 | 12 | 0 | 0.0 | 1.6 | 0.00 | 0.43 | 0.00 | 94 | 1020.7 |
| 20260902154605 | 12 | 0 | 0.0 | 0.0 | 0.00 | 0.43 | 0.43 | 93 | 1020.8 |
| 20260902153108 | 12 | 0 | 0.0 | 0.0 | 0.00 | 0.43 | 0.43 | 94 | 1020.9 |
| 20260902151606 | 13 | 0 | 0.0 | 0.0 | 0.00 | 0.43 | 0.43 | 94 | 1021.0 |
| 20260902150105 | 13 | 0 | 0.0 | 0.0 | 0.00 | 0.43 | 0.43 | 93 | 1021.3 |
| 20260902144603 | 13 | 0 | 0.0 | 0.0 | 0.00 | 0.43 | 0.43 | 93 | 1021.4 |
| 20260902143105 | 13 | 0 | 0.0 | 0.0 | 0.00 | 0.43 | 0.43 | 93 | 1021.3 |
| 20260902141601 | 13 | 0 | 0.0 | 0.0 | 0.00 | 0.43 | 0.43 | 93 | 1021.4 |
| 20260902140101 | 13 | 0 | 0.0 | 0.0 | 0.00 | 0.43 | 0.43 | 93 | 1021.5 |
| 20260902134804 | 13 | 0 | 0.0 | 0.0 | 0.00 | 0.43 | 0.43 | 93 | 1021.6 |
| 20260902133112 | 13 | 0 | 0.0 | 0.0 | 0.00 | 0.43 | 0.43 | 93 | 1021.7 |
| 20260902131607 | 13 | 0 | 0.0 | 0.0 | 0.00 | 0.43 | 0.43 | 93 | 1021.8 |
| 20260902130115 | 13 | 0 | 0.0 | 0.0 | 0.00 | 0.41 | 0.41 | 92 | 1021.8 |
| 20260902124605 | 13 | 0 | 0.0 | 0.0 | 0.00 | 0.41 | 0.41 | 92 | 1021.8 |
| 20260902123112 | 13 | 0 | 0.0 | 0.0 | 0.00 | 0.41 | 0.41 | 92 | 1021.7 |
| 20260902121604 | 13 | 0 | 0.0 | 0.0 | 0.08 | 0.41 | 0.41 | 92 | 1021.7 |
| 20260902120104 | 14 | 0 | 0.0 | 1.6 | 0.18 | 0.41 | 0.41 | 92 | 1021.7 |
| 20260902114604 | 14 | 0 | 0.0 | 1.6 | 0.30 | 0.41 | 0.41 | 91 | 1021.6 |
| 20260902113100 | 14 | 0 | 0.0 | 3.2 | 0.30 | 0.38 | 0.38 | 91 | 1021.5 |
| 20260902111604 | 14 | 252 | 0.0 | 4.8 | 0.28 | 0.33 | 0.33 | 91 | 1021.5 |
| 20260902110106 | 14 | 5 | 0.0 | 4.8 | 0.18 | 0.20 | 0.20 | 91 | 1021.4 |
| 20260902104616 | 14 | 293 | 0.0 | 1.6 | 0.08 | 0.08 | 0.08 | 90 | 1021.3 |
| 20260902103119 | 14 | 0 | 0.0 | 4.8 | 0.08 | 0.08 | 0.08 | 89 | 1021.2 |
| 20260902101609 | 14 | 276 | 1.6 | 4.8 | 0.03 | 0.03 | 0.03 | 88 | 1021.1 |
| 20260902094601 | 15 | 285 | 1.6 | 11.3 | 0.00 | 0.00 | 0.00 | 84 | 1020.8 |
| 20260902093105 | 15 | 286 | 1.6 | 8.0 | 0.00 | 0.00 | 0.00 | 81 | 1020.7 |
| 20260902091603 | 15 | 296 | 1.6 | 6.4 | 0.00 | 0.00 | 0.00 | 80 | 1020.6 |
| 20260902090101 | 15 | 300 | 1.6 | 9.7 | 0.00 | 0.00 | 0.00 | 81 | 1020.5 |
| 20260902084603 | 15 | 279 | 1.6 | 6.4 | 0.00 | 0.00 | 0.00 | 84 | 1020.3 |
| 20260902083101 | 15 | 242 | 1.6 | 16.1 | 0.00 | 0.00 | 0.00 | 81 | 1020.2 |
| 20260902081558 | 16 | 258 | 4.8 | 14.5 | 0.00 | 0.00 | 0.00 | 76 | 1020.3 |
| 20260902074601 | 17 | 286 | 4.8 | 11.3 | 0.00 | 0.00 | 0.00 | 71 | 1020.4 |
| 20260902073059 | 17 | 254 | 1.6 | 8.0 | 0.00 | 0.00 | 0.00 | 72 | 1020.4 |
| 20260902071603 | 16 | 298 | 1.6 | 11.3 | 0.00 | 0.00 | 0.00 | 79 | 1020.4 |
| 20260902070108 | 16 | 284 | 3.2 | 12.9 | 0.00 | 0.00 | 0.00 | 78 | 1020.9 |
| 20260902064606 | 16 | 284 | 4.8 | 16.1 | 0.00 | 0.00 | 0.00 | 75 | 1020.9 |
| 20260902063119 | 17 | 313 | 3.2 | 16.1 | 0.00 | 0.00 | 0.00 | 70 | 1020.7 |
| 20260902061625 | 17 | 331 | 3.2 | 14.5 | 0.00 | 0.00 | 0.00 | 75 | 1020.6 |
| 20260902060128 | 17 | 207 | 3.2 | 16.1 | 0.00 | 0.00 | 0.00 | 68 | 1020.6 |
| 20260902054602 | 17 | 240 | 4.8 | 17.7 | 0.00 | 0.00 | 0.00 | 67 | 1020.8 |
| 20260902053113 | 17 | 245 | 6.4 | 14.5 | 0.00 | 0.00 | 0.00 | 68 | 1021.0 |
| 20260902051617 | 18 | 263 | 3.2 | 8.0 | 0.00 | 0.00 | 0.00 | 70 | 1021.2 |